| time (UTC) | temp C | wind direction | speed KPH | gust KPH | rain 1hr cm | rain 24hr cm | rain mn cm | humidity % | barometer mb |
| 20260503223004 | 11 | 279 | 11.3 | 20.9 | 0.00 | 0.91 | 0.13 | 42 | 1099.8 |
| 20260503222504 | 11 | 309 | 8.0 | 19.3 | 0.00 | 0.91 | 0.13 | 43 | 1099.8 |
| 20260503222004 | 11 | 317 | 11.3 | 32.2 | 0.00 | 0.91 | 0.13 | 43 | 1099.8 |
| 20260503221505 | 11 | 284 | 8.0 | 20.9 | 0.00 | 0.91 | 0.13 | 43 | 1099.8 |
| 20260503221005 | 12 | 299 | 14.5 | 29.0 | 0.00 | 0.91 | 0.13 | 42 | 1099.8 |
| 20260503220504 | 12 | 279 | 11.3 | 20.9 | 0.00 | 0.91 | 0.13 | 43 | 1099.8 |
| 20260503220004 | 12 | 280 | 9.7 | 19.3 | 0.00 | 0.91 | 0.13 | 43 | 1099.8 |
| 20260503215504 | 12 | 283 | 9.7 | 19.3 | 0.00 | 0.91 | 0.13 | 44 | 1099.8 |
| 20260503215005 | 11 | 311 | 11.3 | 24.1 | 0.00 | 0.91 | 0.13 | 45 | 1099.8 |
| 20260503214504 | 11 | 277 | 12.9 | 19.3 | 0.00 | 0.91 | 0.13 | 44 | 1099.8 |
| 20260503214005 | 11 | 300 | 11.3 | 24.1 | 0.00 | 0.91 | 0.13 | 45 | 1099.8 |
| 20260503213504 | 11 | 300 | 11.3 | 25.7 | 0.00 | 0.91 | 0.13 | 44 | 1099.8 |
| 20260503213004 | 11 | 270 | 9.7 | 20.9 | 0.00 | 0.91 | 0.13 | 45 | 1099.8 |
| 20260503212504 | 11 | 330 | 9.7 | 29.0 | 0.00 | 0.91 | 0.13 | 45 | 1099.8 |
| 20260503212004 | 12 | 281 | 8.0 | 29.0 | 0.00 | 0.91 | 0.13 | 44 | 1099.8 |
| 20260503211505 | 12 | 277 | 14.5 | 24.1 | 0.00 | 0.91 | 0.13 | 44 | 1099.8 |
| 20260503210005 | 11 | 275 | 4.8 | 19.3 | 0.00 | 0.91 | 0.13 | 47 | 1099.8 |
| 20260503205505 | 11 | 286 | 8.0 | 20.9 | 0.00 | 0.91 | 0.13 | 48 | 1099.8 |
| 20260503205005 | 11 | 289 | 11.3 | 25.7 | 0.00 | 0.91 | 0.13 | 46 | 1099.8 |
| 20260503204504 | 12 | 327 | 8.0 | 20.9 | 0.00 | 0.91 | 0.13 | 48 | 1099.8 |
| 20260503204004 | 12 | 289 | 9.7 | 25.7 | 0.00 | 0.91 | 0.13 | 47 | 1099.8 |
| 20260503203505 | 11 | 313 | 12.9 | 22.5 | 0.00 | 0.91 | 0.13 | 48 | 1099.8 |
| 20260503203004 | 11 | 236 | 12.9 | 24.1 | 0.00 | 0.91 | 0.13 | 47 | 1099.8 |
| 20260503202504 | 11 | 295 | 9.7 | 19.3 | 0.00 | 0.91 | 0.13 | 49 | 1099.8 |
| 20260503202004 | 11 | 310 | 11.3 | 25.7 | 0.00 | 0.91 | 0.13 | 49 | 1099.8 |
| 20260503201504 | 11 | 272 | 8.0 | 24.1 | 0.00 | 0.91 | 0.13 | 49 | 1099.8 |
| 20260503201004 | 12 | 290 | 12.9 | 32.2 | 0.00 | 0.91 | 0.13 | 49 | 1099.8 |
| 20260503200505 | 12 | 340 | 11.3 | 20.9 | 0.00 | 0.91 | 0.13 | 51 | 1099.8 |
| 20260503200004 | 11 | 300 | 8.0 | 24.1 | 0.00 | 0.91 | 0.13 | 52 | 1099.8 |
| 20260503195504 | 11 | 260 | 11.3 | 24.1 | 0.00 | 0.91 | 0.13 | 51 | 1099.8 |
| 20260503195005 | 11 | 306 | 14.5 | 29.0 | 0.00 | 0.91 | 0.13 | 52 | 1099.8 |
| 20260503194504 | 11 | 296 | 9.7 | 24.1 | 0.00 | 0.91 | 0.13 | 53 | 1099.8 |
| 20260503194005 | 11 | 309 | 11.3 | 22.5 | 0.00 | 0.91 | 0.13 | 54 | 1099.8 |
| 20260503193505 | 11 | 319 | 11.3 | 24.1 | 0.00 | 0.91 | 0.13 | 54 | 1099.8 |
| 20260503193005 | 11 | 331 | 9.7 | 16.1 | 0.00 | 0.91 | 0.13 | 54 | 1099.8 |
| 20260503192004 | 10 | 319 | 14.5 | 32.2 | 0.00 | 0.91 | 0.13 | 54 | 1099.8 |
| 20260503191504 | 10 | 318 | 12.9 | 25.7 | 0.00 | 0.91 | 0.13 | 55 | 1099.8 |
| 20260503191004 | 11 | 289 | 11.3 | 19.3 | 0.00 | 0.91 | 0.13 | 54 | 1099.8 |
| 20260503190504 | 11 | 308 | 11.3 | 19.3 | 0.00 | 0.91 | 0.13 | 54 | 1099.8 |
| 20260503185504 | 10 | 333 | 9.7 | 19.3 | 0.00 | 0.91 | 0.13 | 56 | 1099.8 |
| 20260503184504 | 10 | 354 | 9.7 | 20.9 | 0.00 | 0.91 | 0.13 | 58 | 1099.8 |
| 20260503184004 | 10 | 346 | 11.3 | 20.9 | 0.00 | 0.91 | 0.13 | 58 | 1099.8 |
| 20260503183504 | 10 | 316 | 14.5 | 20.9 | 0.00 | 0.91 | 0.13 | 58 | 1099.8 |
| 20260503183005 | 10 | 320 | 12.9 | 25.7 | 0.00 | 0.91 | 0.13 | 58 | 1099.8 |
| 20260503182505 | 10 | 27 | 14.5 | 29.0 | 0.00 | 0.91 | 0.13 | 59 | 1099.8 |
| 20260503182006 | 10 | 314 | 12.9 | 32.2 | 0.00 | 0.91 | 0.13 | 60 | 1099.8 |
| 20260503181005 | 9 | 322 | 14.5 | 29.0 | 0.00 | 0.91 | 0.13 | 63 | 1099.8 |
| 20260503180504 | 9 | 326 | 9.7 | 24.1 | 0.00 | 0.91 | 0.13 | 65 | 1099.8 |
| 20260503180004 | 9 | 273 | 9.7 | 19.3 | 0.00 | 0.91 | 0.13 | 65 | 1099.8 |
| 20260503175504 | 9 | 324 | 17.7 | 32.2 | 0.00 | 0.91 | 0.13 | 65 | 1099.8 |
| 20260503175004 | 9 | 312 | 11.3 | 20.9 | 0.00 | 0.91 | 0.13 | 65 | 1099.8 |
| 20260503174504 | 9 | 323 | 14.5 | 24.1 | 0.00 | 0.91 | 0.13 | 65 | 1099.8 |
| 20260503174004 | 10 | 302 | 11.3 | 20.9 | 0.00 | 0.91 | 0.13 | 65 | 1099.8 |
| 20260503173505 | 10 | 350 | 12.9 | 25.7 | 0.00 | 0.91 | 0.13 | 65 | 1099.8 |
| 20260503173004 | 10 | 291 | 14.5 | 33.8 | 0.00 | 0.91 | 0.13 | 64 | 1099.8 |
| 20260503172004 | 10 | 321 | 19.3 | 33.8 | 0.00 | 0.91 | 0.13 | 65 | 1099.8 |
| 20260503171504 | 10 | 238 | 4.8 | 20.9 | 0.00 | 0.91 | 0.13 | 69 | 1099.8 |
| 20260503171004 | 9 | 307 | 11.3 | 20.9 | 0.00 | 0.91 | 0.13 | 69 | 1099.8 |
| 20260503170504 | 9 | 333 | 14.5 | 20.9 | 0.00 | 0.91 | 0.13 | 69 | 1099.8 |
| 20260503151005 | 7 | 346 | 9.7 | 20.9 | 0.00 | 0.91 | 0.13 | 79 | 1099.8 |
| 20260503130505 | 8 | 323 | 11.3 | 20.9 | 0.00 | 0.91 | 0.13 | 77 | 1099.8 |
| 20260503110504 | 6 | 336 | 1.6 | 3.2 | 0.00 | 0.91 | 0.13 | 86 | 1099.8 |
| 20260503081504 | 7 | 233 | 3.2 | 12.9 | 0.03 | 0.91 | 0.13 | 89 | 1099.8 |
| 20260503081005 | 7 | 233 | 1.6 | 8.0 | 0.03 | 0.91 | 0.13 | 89 | 1099.8 |
| 20260503072504 | 7 | 233 | 3.2 | 11.3 | 0.03 | 0.89 | 0.10 | 90 | 1099.8 |
| 20260503072006 | 8 | 233 | 3.2 | 9.7 | 0.03 | 0.89 | 0.10 | 91 | 1099.8 |
| 20260503071005 | 8 | 233 | 1.6 | 8.0 | 0.03 | 0.89 | 0.10 | 91 | 1099.8 |
| 20260503054504 | 8 | 219 | 0.0 | 0.0 | 0.03 | 0.84 | 0.05 | 91 | 1099.8 |
| 20260503054005 | 8 | 219 | 0.0 | 0.0 | 0.03 | 0.84 | 0.05 | 91 | 1099.8 |
| 20260503052005 | 8 | 219 | 0.0 | 0.0 | 0.03 | 0.81 | 0.03 | 91 | 1099.8 |
| 20260503051504 | 8 | 219 | 0.0 | 0.0 | 0.03 | 0.81 | 0.03 | 91 | 1099.8 |
| 20260503050005 | 8 | 219 | 1.6 | 4.8 | 0.03 | 0.81 | 0.03 | 91 | 1099.8 |
| 20260503044505 | 8 | 219 | 1.6 | 4.8 | 0.08 | 0.81 | 0.03 | 91 | 1099.8 |
| 20260503042505 | 8 | 209 | 0.0 | 3.2 | 0.10 | 0.79 | 0.00 | 91 | 1099.8 |
| 20260503042005 | 8 | 209 | 0.0 | 0.0 | 0.13 | 0.79 | 0.00 | 91 | 1099.8 |
| 20260503041505 | 8 | 209 | 0.0 | 4.8 | 0.13 | 0.79 | 0.00 | 91 | 1099.8 |
| 20260503041004 | 8 | 209 | 3.2 | 4.8 | 0.13 | 0.79 | 0.00 | 91 | 1099.8 |
| 20260503040504 | 8 | 209 | 0.0 | 3.2 | 0.13 | 0.79 | 0.00 | 91 | 1099.8 |
| 20260503040004 | 9 | 209 | 0.0 | 3.2 | 0.13 | 0.79 | 0.00 | 91 | 1099.8 |
| 20260503035505 | 9 | 209 | 0.0 | 0.0 | 0.13 | 0.76 | 0.76 | 91 | 1099.8 |
| 20260503035004 | 9 | 209 | 0.0 | 0.0 | 0.13 | 0.76 | 0.76 | 91 | 1099.8 |
| 20260503034504 | 9 | 209 | 0.0 | 0.0 | 0.10 | 0.74 | 0.74 | 91 | 1099.8 |
| 20260503034005 | 9 | 209 | 0.0 | 0.0 | 0.10 | 0.74 | 0.74 | 90 | 1099.8 |
| 20260503033004 | 8 | 209 | 0.0 | 1.6 | 0.10 | 0.71 | 0.71 | 91 | 1099.8 |
| 20260503032504 | 8 | 209 | 0.0 | 1.6 | 0.10 | 0.69 | 0.69 | 91 | 1099.8 |
| 20260503032004 | 8 | 209 | 1.6 | 4.8 | 0.08 | 0.66 | 0.66 | 90 | 1099.8 |
| 20260503031005 | 9 | 191 | 0.0 | 0.0 | 0.10 | 0.66 | 0.66 | 90 | 1099.8 |
| 20260503030504 | 9 | 191 | 0.0 | 0.0 | 0.13 | 0.66 | 0.66 | 90 | 1099.8 |
| 20260503025504 | 9 | 191 | 1.6 | 3.2 | 0.15 | 0.64 | 0.64 | 90 | 1099.8 |
| 20260503025004 | 9 | 191 | 1.6 | 3.2 | 0.18 | 0.64 | 0.64 | 90 | 1099.8 |
| 20260503024504 | 9 | 191 | 0.0 | 1.6 | 0.20 | 0.64 | 0.64 | 90 | 1099.8 |
| 20260503024004 | 9 | 191 | 0.0 | 1.6 | 0.23 | 0.64 | 0.64 | 90 | 1099.8 |
| 20260503023505 | 9 | 191 | 0.0 | 0.0 | 0.23 | 0.61 | 0.61 | 90 | 1099.8 |
| 20260503023004 | 9 | 191 | 0.0 | 0.0 | 0.23 | 0.61 | 0.61 | 90 | 1099.8 |
| 20260503022004 | 9 | 191 | 0.0 | 3.2 | 0.23 | 0.58 | 0.58 | 90 | 1099.8 |
| 20260503015504 | 9 | 191 | 0.0 | 0.0 | 0.18 | 0.48 | 0.48 | 90 | 1099.8 |
| 20260503015004 | 9 | 191 | 0.0 | 0.0 | 0.18 | 0.46 | 0.46 | 90 | 1099.8 |
| 20260503014504 | 9 | 191 | 0.0 | 0.0 | 0.18 | 0.43 | 0.43 | 90 | 1099.8 |
| 20260503014005 | 9 | 191 | 0.0 | 0.0 | 0.15 | 0.41 | 0.41 | 90 | 1099.8 |
| 20260503013504 | 9 | 191 | 0.0 | 0.0 | 0.15 | 0.38 | 0.38 | 90 | 1099.8 |
| 20260503013005 | 9 | 191 | 0.0 | 0.0 | 0.15 | 0.38 | 0.38 | 90 | 1099.8 |
| 20260503012504 | 9 | 191 | 0.0 | 0.0 | 0.15 | 0.36 | 0.36 | 90 | 1099.8 |
| 20260503011004 | 9 | 191 | 1.6 | 4.8 | 0.18 | 0.36 | 0.36 | 89 | 1099.8 |
| 20260503010504 | 9 | 191 | 0.0 | 3.2 | 0.18 | 0.36 | 0.36 | 89 | 1099.8 |
| 20260503010004 | 9 | 191 | 0.0 | 3.2 | 0.18 | 0.33 | 0.33 | 89 | 1099.8 |
| 20260503005504 | 9 | 191 | 0.0 | 1.6 | 0.15 | 0.30 | 0.30 | 89 | 1099.8 |
| 20260503005005 | 9 | 191 | 0.0 | 0.0 | 0.13 | 0.28 | 0.28 | 89 | 1099.8 |
| 20260503004504 | 9 | 191 | 0.0 | 0.0 | 0.10 | 0.25 | 0.25 | 89 | 1099.8 |
| 20260503004005 | 9 | 191 | 0.0 | 1.6 | 0.10 | 0.25 | 0.25 | 89 | 1099.8 |
| 20260503003004 | 9 | 213 | 0.0 | 0.0 | 0.10 | 0.23 | 0.23 | 89 | 1099.8 |
| 20260503002504 | 9 | 213 | 0.0 | 0.0 | 0.08 | 0.20 | 0.20 | 89 | 1099.8 |
| 20260503002004 | 9 | 213 | 0.0 | 0.0 | 0.08 | 0.20 | 0.20 | 88 | 1099.8 |
| 20260503001504 | 9 | 213 | 0.0 | 0.0 | 0.13 | 0.20 | 0.20 | 88 | 1099.8 |
| 20260503001005 | 9 | 213 | 0.0 | 0.0 | 0.13 | 0.18 | 0.18 | 88 | 1099.8 |
| 20260503000505 | 9 | 213 | 0.0 | 3.2 | 0.15 | 0.18 | 0.18 | 88 | 1099.8 |
| 20260503000005 | 9 | 213 | 3.2 | 8.0 | 0.13 | 0.15 | 0.15 | 88 | 1099.8 |
| 20260502235505 | 9 | 199 | 3.2 | 9.7 | 0.15 | 0.15 | 0.15 | 88 | 1099.8 |
| 20260502235004 | 9 | 193 | 4.8 | 9.7 | 0.15 | 0.15 | 0.15 | 88 | 1099.8 |
| 20260502234505 | 10 | 200 | 1.6 | 4.8 | 0.15 | 0.15 | 0.15 | 87 | 1099.8 |
| 20260502234004 | 10 | 199 | 0.0 | 4.8 | 0.15 | 0.15 | 0.15 | 87 | 1099.8 |
| 20260502233504 | 10 | 198 | 0.0 | 4.8 | 0.15 | 0.15 | 0.15 | 87 | 1099.8 |
| 20260502233004 | 10 | 198 | 1.6 | 8.0 | 0.13 | 0.13 | 0.13 | 86 | 1099.8 |
| 20260502232504 | 10 | 188 | 1.6 | 4.8 | 0.13 | 0.13 | 0.13 | 86 | 1099.8 |
| 20260502232004 | 10 | 188 | 1.6 | 8.0 | 0.13 | 0.13 | 0.13 | 86 | 1099.8 |
| 20260502231504 | 10 | 188 | 1.6 | 3.2 | 0.08 | 0.08 | 0.08 | 85 | 1099.8 |
| 20260502231005 | 10 | 188 | 1.6 | 9.7 | 0.05 | 0.05 | 0.05 | 84 | 1099.8 |
| 20260502230004 | 10 | 184 | 3.2 | 4.8 | 0.03 | 0.03 | 0.03 | 82 | 1099.8 |
| 20260502225504 | 10 | 183 | 0.0 | 4.8 | 0.00 | 0.00 | 0.00 | 81 | 1099.8 |
| 20260502224505 | 10 | 187 | 4.8 | 16.1 | 0.00 | 0.00 | 0.00 | 80 | 1099.8 |
| 20260502224005 | 10 | 214 | 3.2 | 11.3 | 0.00 | 0.00 | 0.00 | 80 | 1099.8 |
| 20260502223504 | 11 | 171 | 3.2 | 8.0 | 0.00 | 0.00 | 0.00 | 80 | 1099.8 |